Minneapolis, MN

12:58 AM CDT on April 24, 2018 (GMT -0500)
Minneapolis-Saint Paul International

Weather History for KMSP - November, 2012

Change the Weather History Date:

Wednesday, November 14, 2012

  Actual Average Record
Temperature  
Mean Temperature 43 °F 35 °F  
Max Temperature 51 °F 42 °F 71 °F (1990)
Min Temperature 34 °F 27 °F 0 °F (1919)
Degree Days  
Heating Degree Days 22 30  
Month to date heating degree days 352 374  
Since 1 July heating degree days 1012 1054  
Cooling Degree Days 0 0  
Month to date cooling degree days 0 0  
Year to date cooling degree days 1131 753  
Moisture  
Dew Point 29 °F    
Average Humidity 62    
Maximum Humidity 82    
Minimum Humidity 41    
Precipitation  
Precipitation 0.00 in 0.06 in 0.80 in (1926)
Month to date precipitation 0.59 0.84  
Year to date precipitation 27.91 28.52  
Snow  
Snow 0.00 in 0.40 in 2.50 in (1951)
Month to date snowfall 0.2 3.1  
Since 1 July snowfall 0.2 3.7  
Since 1 September snowfall 0.2 3.7  
Snow Depth 0.00 in    
Sea Level Pressure  
Sea Level Pressure 30.24 in    
Wind  
Wind Speed 5 mph (SSE)    
Max Wind Speed 9 mph    
Max Gust Speed 13 mph    
Visibility 10 miles    
Events      
T = Trace of Precipitation, MM = Missing Value Source: NWS Daily Summary

Daily Weather History Graph

Daily Weather History Graph

Search for Another Location

Airport or City:

Astronomy

Nov. 14, 2012 Rise Set
Actual Time 7:09 AM CST 4:44 PM CST
Civil Twilight 6:37 AM CST 5:16 PM CST
Nautical Twilight 6:02 AM CST 5:51 PM CST
Astronomical Twilight 5:27 AM CST 6:26 PM CST
Moon 8:02 AM CST (11/14) 5:31 PM CST (11/14)
Length of Visible Light 10h 38m
Length of Day
9h 35m
New Moon, 1% of the Moon is Illuminated
Nov 14
New Moon
Nov 20
First Quarter
Nov 28
Full
Dec 6
Last Quarter
Dec 13
New

Hourly Weather History & Observations

Time (CST) Temp. Windchill Dew Point Humidity Pressure Visibility Wind Dir Wind Speed Gust Speed Precip Events Conditions
12:53 AM 37.0 °F 31.6 °F 27.0 °F 67% 30.30 in 10.0 mi ESE 6.9 mph - N/A   Overcast
1:53 AM 37.0 °F 31.0 °F 27.0 °F 67% 30.29 in 10.0 mi SE 8.1 mph - N/A   Overcast
2:53 AM 36.0 °F 31.1 °F 27.0 °F 70% 30.29 in 10.0 mi ESE 5.8 mph - N/A   Overcast
3:53 AM 36.0 °F 32.1 °F 28.0 °F 73% 30.29 in 10.0 mi ESE 4.6 mph - N/A   Overcast
4:53 AM 36.0 °F 33.3 °F 28.0 °F 73% 30.29 in 10.0 mi ESE 3.5 mph - N/A   Overcast
5:53 AM 35.1 °F 31.0 °F 28.0 °F 76% 30.29 in 10.0 mi SE 4.6 mph - N/A   Overcast
6:53 AM 35.1 °F 32.2 °F 28.0 °F 76% 30.29 in 10.0 mi SE 3.5 mph - N/A   Mostly Cloudy
7:53 AM 34.0 °F 29.8 °F 28.0 °F 79% 30.29 in 10.0 mi SE 4.6 mph - N/A   Scattered Clouds
8:53 AM 37.0 °F 32.4 °F 30.0 °F 76% 30.29 in 10.0 mi SSE 5.8 mph - N/A   Partly Cloudy
9:53 AM 39.9 °F 37.8 °F 30.0 °F 68% 30.29 in 9.0 mi South 3.5 mph - N/A   Scattered Clouds
10:53 AM 44.1 °F 40.1 °F 30.0 °F 58% 30.28 in 10.0 mi SSE 6.9 mph - N/A   Mostly Cloudy
11:53 AM 46.0 °F 43.9 °F 30.0 °F 54% 30.27 in 10.0 mi South 4.6 mph - N/A   Scattered Clouds
12:53 PM 50.0 °F - 28.0 °F 43% 30.24 in 10.0 mi South 5.8 mph - N/A   Scattered Clouds
1:53 PM 51.1 °F - 28.0 °F 41% 30.22 in 10.0 mi South 5.8 mph - N/A   Mostly Cloudy
2:53 PM 50.0 °F - 28.9 °F 44% 30.22 in 10.0 mi South 5.8 mph - N/A   Mostly Cloudy
3:53 PM 50.0 °F - 28.9 °F 44% 30.22 in 10.0 mi South 4.6 mph - N/A   Mostly Cloudy
4:53 PM 46.9 °F - 30.0 °F 52% 30.20 in 10.0 mi SSE 5.8 mph - N/A   Mostly Cloudy
5:53 PM 46.9 °F - 30.9 °F 54% 30.20 in 10.0 mi SSE 4.6 mph - N/A   Overcast
6:53 PM 43.0 °F 39.5 °F 30.0 °F 60% 30.20 in 10.0 mi SSE 5.8 mph - N/A   Overcast
7:53 PM 43.0 °F 40.3 °F 30.9 °F 62% 30.19 in 10.0 mi SE 4.6 mph - N/A   Overcast
8:53 PM 44.1 °F 41.5 °F 32.0 °F 63% 30.19 in 10.0 mi SE 4.6 mph - N/A   Overcast
9:53 PM 42.1 °F 40.2 °F 32.0 °F 67% 30.19 in 9.0 mi SSE 3.5 mph - N/A   Mostly Cloudy
10:53 PM 41.0 °F 38.0 °F 32.0 °F 70% 30.18 in 10.0 mi SSE 4.6 mph - N/A   Overcast
11:53 PM 42.1 °F - 30.9 °F 65% 30.17 in 10.0 mi Calm Calm - N/A   Mostly Cloudy